Weather History for KFAM - May, 2013

Change the Weather History Date:

Tuesday, May 7, 2013

  Actual Average (KCGI) Record (KCGI)
Temperature  
Mean Temperature 60 °F 64 °F  
Max Temperature 71 °F 75 °F 90 °F (1986)
Min Temperature 48 °F 53 °F 37 °F (1992)
Degree Days  
Heating Degree Days 6 3  
Month to date heating degree days 26  
Since 1 July heating degree days 4344  
Cooling Degree Days 0 2  
Month to date cooling degree days 14  
Year to date cooling degree days 45  
Growing Degree Days 10 (Base 50)    
Moisture  
Dew Point 52 °F    
Average Humidity 72    
Maximum Humidity 94    
Minimum Humidity 50    
Precipitation  
Precipitation 0.00 in 0.20 in 2.54 in (1961)
Month to date precipitation 1.36  
Year to date precipitation 17.00  
Sea Level Pressure  
Sea Level Pressure 30.03 in    
Wind  
Wind Speed 3 mph (NNE)    
Max Wind Speed 9 mph    
Max Gust Speed -    
Visibility 10 miles    
Events      
T = Trace of Precipitation, MM = Missing Value Source: NWS Daily Summary

Daily Weather History Graph

Daily Weather History Graph

Search for Another Location

Airport or City:

Trip Planner

Search our weather history database for the weather conditions in past years. The results will help you decide how hot, cold, wet, or windy it might be!

Date:

Astronomy

May. 07, 2013 Rise Set
Actual Time 5:59 AM CDT 7:57 PM CDT
Civil Twilight 5:30 AM CDT 8:26 PM CDT
Nautical Twilight 4:55 AM CDT 9:01 PM CDT
Astronomical Twilight 4:17 AM CDT 9:39 PM CDT
Moon 4:31 AM CDT (5/7) 5:59 PM CDT (5/7)
Length of Visible Light 14h 56m
Length of Day
13h 58m
Waning Crescent, 5% of the Moon is Illuminated
May 7
Waning Crescent
May 9
New
May 17
First Quarter
May 24
Full
May 31
Last Quarter

Hourly Weather History & Observations

Time (CDT) Temp. Dew Point Humidity Pressure Visibility Wind Dir Wind Speed Gust Speed Precip Events Conditions
12:15 AM 59.0 °F 51.8 °F 77% 30.01 in 10.0 mi NNW 4.6 mph - N/A   Overcast
12:35 AM 57.2 °F 51.8 °F 82% 30.01 in 10.0 mi Calm Calm - N/A   Overcast
12:55 AM 57.2 °F 53.6 °F 88% 30.01 in 10.0 mi NNW 3.5 mph - N/A   Overcast
1:15 AM 55.4 °F 51.8 °F 88% 30.01 in 10.0 mi NNW 3.5 mph - N/A   Mostly Cloudy
1:35 AM 55.4 °F 51.8 °F 88% 30.00 in 10.0 mi NW 3.5 mph - N/A   Clear
1:55 AM 55.4 °F 50.0 °F 82% 30.00 in 10.0 mi NW 3.5 mph - N/A   Clear
2:15 AM 53.6 °F 50.0 °F 88% 30.00 in 10.0 mi NW 3.5 mph - N/A   Clear
2:35 AM 53.6 °F 48.2 °F 82% 30.00 in 10.0 mi NNW 3.5 mph - N/A   Clear
2:55 AM 55.4 °F 51.8 °F 88% 30.00 in 10.0 mi NNW 5.8 mph - N/A   Scattered Clouds
3:15 AM 53.6 °F 48.2 °F 82% 30.00 in 10.0 mi Calm Calm - N/A   Scattered Clouds
3:35 AM 53.6 °F 50.0 °F 88% 30.00 in 10.0 mi Calm Calm - N/A   Mostly Cloudy
3:55 AM 53.6 °F 48.2 °F 82% 30.00 in 10.0 mi Calm Calm - N/A   Scattered Clouds
4:15 AM 51.8 °F 48.2 °F 88% 30.00 in 8.0 mi Calm Calm - N/A   Clear
4:35 AM 51.8 °F 48.2 °F 88% 30.00 in 5.0 mi Calm Calm - N/A   Clear
5:15 AM 50.0 °F 48.2 °F 94% 30.01 in 5.0 mi Calm Calm - N/A   Partly Cloudy
5:35 AM 50.0 °F 48.2 °F 94% 30.01 in 9.0 mi Calm Calm - N/A   Clear
5:55 AM 50.0 °F 48.2 °F 94% 30.02 in 8.0 mi Calm Calm - N/A   Clear
6:15 AM 48.2 °F 46.4 °F 93% 30.02 in 2.0 mi Calm Calm - N/A   Clear
6:35 AM 48.2 °F 46.4 °F 93% 30.02 in 7.0 mi Calm Calm - N/A   Clear
6:55 AM 51.8 °F 48.2 °F 88% 30.02 in 9.0 mi Calm Calm - N/A   Clear
7:15 AM 51.8 °F 50.0 °F 94% 30.03 in 10.0 mi Calm Calm - N/A   Clear
7:35 AM 55.4 °F 53.6 °F 94% 30.04 in 10.0 mi Calm Calm - N/A   Clear
7:55 AM 57.2 °F 53.6 °F 88% 30.04 in 10.0 mi NNE 4.6 mph - N/A   Clear
8:15 AM 62.6 °F 53.6 °F 72% 30.04 in 10.0 mi NE 5.8 mph - N/A   Clear
8:35 AM 62.6 °F 55.4 °F 77% 30.05 in 10.0 mi NE 6.9 mph - N/A   Clear
8:55 AM 64.4 °F 55.4 °F 73% 30.05 in 10.0 mi NE 5.8 mph - N/A   Clear
9:15 AM 66.2 °F 55.4 °F 68% 30.05 in 10.0 mi NE 9.2 mph - N/A   Clear
9:35 AM 66.2 °F 55.4 °F 68% 30.05 in 10.0 mi ENE 5.8 mph - N/A   Clear
9:55 AM 66.2 °F 55.4 °F 68% 30.06 in 10.0 mi NE 6.9 mph - N/A   Clear
10:15 AM 66.2 °F 55.4 °F 68% 30.06 in 10.0 mi North 8.1 mph - N/A   Clear
10:35 AM 66.2 °F 53.6 °F 64% 30.07 in 10.0 mi NNE 6.9 mph - N/A   Clear
10:55 AM 69.8 °F 55.4 °F 60% 30.07 in 10.0 mi North 6.9 mph - N/A   Clear
11:15 AM 69.8 °F 55.4 °F 60% 30.07 in 10.0 mi NNE 6.9 mph - N/A   Clear
11:35 AM 69.8 °F 53.6 °F 56% 30.07 in 10.0 mi NNE 6.9 mph - N/A   Partly Cloudy
11:55 AM 69.8 °F 53.6 °F 56% 30.07 in 10.0 mi North 4.6 mph - N/A   Scattered Clouds
12:15 PM 71.6 °F 55.4 °F 57% 30.07 in 10.0 mi North 3.5 mph - N/A   Mostly Cloudy
12:35 PM 69.8 °F 53.6 °F 56% 30.06 in 10.0 mi ENE 3.5 mph - N/A   Mostly Cloudy
12:55 PM 71.6 °F 55.4 °F 57% 30.05 in 10.0 mi Calm Calm - N/A   Scattered Clouds
1:15 PM 71.6 °F 53.6 °F 53% 30.05 in 10.0 mi NE 4.6 mph - N/A   Mostly Cloudy
1:35 PM 71.6 °F 53.6 °F 53% 30.05 in 10.0 mi ENE 3.5 mph - N/A   Partly Cloudy
1:55 PM 71.6 °F 53.6 °F 53% 30.05 in 10.0 mi NE 5.8 mph - N/A   Scattered Clouds
2:15 PM 71.6 °F 53.6 °F 53% 30.05 in 10.0 mi North 5.8 mph - N/A   Overcast
2:35 PM 71.6 °F 53.6 °F 53% 30.04 in 10.0 mi NNE 3.5 mph - N/A   Overcast
2:55 PM 71.6 °F 53.6 °F 53% 30.04 in 10.0 mi ENE 6.9 mph - N/A   Mostly Cloudy
3:15 PM 71.6 °F 53.6 °F 53% 30.04 in 10.0 mi North 4.6 mph - N/A   Mostly Cloudy
3:35 PM 71.6 °F 53.6 °F 53% 30.04 in 10.0 mi NE 5.8 mph - N/A   Mostly Cloudy
3:55 PM 71.6 °F 51.8 °F 50% 30.03 in 10.0 mi Calm Calm - N/A   Mostly Cloudy
4:15 PM 71.6 °F 51.8 °F 50% 30.03 in 10.0 mi Calm Calm - N/A   Scattered Clouds
4:35 PM 71.6 °F 53.6 °F 53% 30.02 in 10.0 mi NNE 4.6 mph - N/A   Scattered Clouds
4:55 PM 71.6 °F 53.6 °F 53% 30.02 in 10.0 mi North 3.5 mph - N/A   Partly Cloudy
5:15 PM 71.6 °F 51.8 °F 50% 30.02 in 10.0 mi Calm Calm - N/A   Scattered Clouds
5:35 PM 71.6 °F 51.8 °F 50% 30.02 in 10.0 mi Calm Calm - N/A   Mostly Cloudy
5:55 PM 71.6 °F 53.6 °F 53% 30.02 in 10.0 mi Calm Calm - N/A   Overcast
6:15 PM 71.6 °F 53.6 °F 53% 30.02 in 10.0 mi Calm Calm - N/A   Overcast
6:35 PM 71.6 °F 53.6 °F 53% 30.02 in 10.0 mi Calm Calm - N/A   Overcast
6:55 PM 71.6 °F 53.6 °F 53% 30.02 in 10.0 mi Calm Calm - N/A   Mostly Cloudy
7:15 PM 71.6 °F 53.6 °F 53% 30.02 in 10.0 mi East 3.5 mph - N/A   Clear
7:35 PM 68.0 °F 53.6 °F 60% 30.02 in 10.0 mi East 3.5 mph - N/A   Clear
7:55 PM 66.2 °F 51.8 °F 60% 30.03 in 10.0 mi Calm Calm - N/A   Clear
8:15 PM 64.4 °F 53.6 °F 68% 30.03 in 10.0 mi East 5.8 mph - N/A   Clear
8:35 PM 62.6 °F 53.6 °F 72% 30.03 in 10.0 mi East 4.6 mph - N/A   Clear
8:55 PM 62.6 °F 53.6 °F 72% 30.03 in 10.0 mi Calm Calm - N/A   Clear
9:15 PM 60.8 °F 53.6 °F 77% 30.04 in 10.0 mi Calm Calm - N/A   Clear
9:35 PM 60.8 °F 53.6 °F 77% 30.04 in 10.0 mi Calm Calm - N/A   Clear
9:55 PM 57.2 °F 53.6 °F 88% 30.05 in 10.0 mi WSW 3.5 mph - N/A   Clear
10:15 PM 57.2 °F 53.6 °F 88% 30.05 in 10.0 mi Calm Calm - N/A   Clear
10:35 PM 57.2 °F 51.8 °F 82% 30.04 in 10.0 mi Calm Calm - N/A   Clear
10:55 PM 53.6 °F 51.8 °F 94% 30.04 in 10.0 mi Calm Calm - N/A   Clear
11:15 PM 55.4 °F 53.6 °F 94% 30.04 in 10.0 mi Calm Calm - N/A   Clear
11:35 PM 53.6 °F 51.8 °F 94% 30.04 in 9.0 mi Calm Calm - N/A   Clear
11:55 PM 53.6 °F 51.8 °F 94% 30.04 in 10.0 mi Calm Calm - N/A   Clear